[[{"header":{"parameterUnit":"m.s-1","parameterCategory":1,"la1":30.2991,"la2":30.254,"lo1":-89.0895,"lo2":-89.0444,"dy":0.0017,"dx":0.0017,"nx":28,"ny":28,"refTime":"2025-01-11T03:00:00:Z","depth":0,"parameterNumber":2,"parameterNumberName":"U-component_of_WINDS"},"data":[0,0,0,0,0,0,0,0,0,0,0,0,0,0,0,0,0,0,0,0,0,0,0,0,0,0,0,0,0,0,0,0,0,0,0,0,0,0,0,0,0,0,0,0,0,0,0,0,0,0,0,0,0,0,0,0,0,0,-2.495,-2.4951,0,-2.5023,-2.5024,-2.5025,-2.5008,-2.5007,-2.5005,-2.5004,-2.5077,-2.508,-2.5084,0,0,0,0,0,0,0,0,0,0,0,0,0,-2.4793,-2.4796,-2.495,-2.4951,-2.4952,-2.5023,-2.5024,-2.5025,-2.5008,-2.5007,-2.5005,-2.5003,-2.5076,-2.508,-2.5084,0,0,0,0,0,0,0,0,0,0,0,0,0,-2.4864,-2.4797,-2.495,-2.4952,-2.4953,-2.5023,-2.5024,-2.5026,-2.5009,-2.5007,-2.5005,-2.5003,-2.5075,-2.508,-2.5084,-2.5156,0,0,-2.5099,-2.5101,0,0,0,0,0,0,0,0,-2.486,-2.4869,-2.4951,-2.4952,-2.4953,-2.5005,-2.4996,-2.5069,-2.5009,-2.4988,-2.5004,-2.5002,-2.5055,-2.5061,-2.5079,-2.516,-2.5163,-2.51,-2.5103,-2.5105,-2.5106,0,0,0,0,0,0,0,-2.4855,-2.4866,-2.4979,-2.4952,-2.4954,-2.4949,-2.4956,-2.501,-2.5032,-2.4989,-2.4988,-2.4997,-2.5055,-2.5075,-2.5081,-2.5164,-2.51,-2.5104,-2.5107,-2.5109,-2.5305,-2.5307,0,0,0,0,0,0,-2.4849,-2.4862,-2.4977,-2.4981,-2.49,-2.4953,-2.4962,-2.499,-2.5031,-2.5035,-2.4999,-2.4996,-2.5067,-2.5075,-2.5083,-2.5169,-2.5105,-2.5109,-2.5112,-2.5303,-2.5305,-2.5308,0,0,0,0,0,0,-2.4846,-2.486,-2.4974,-2.4922,-2.4936,-2.4958,-2.499,-2.4993,-2.5012,-2.5039,-2.5042,-2.5015,-2.5066,-2.5076,-2.5138,-2.5171,-2.5111,-2.5116,-2.53,-2.5304,-2.5307,-2.5341,0,0,0,0,0,0,-2.4841,-2.4859,-2.4887,-2.4922,-2.4939,-2.5028,-2.4992,-2.4996,-2.5021,-2.5018,-2.5055,-2.5059,-2.5065,-2.5131,-2.5143,-2.5177,-2.512,-2.5297,-2.5302,-2.5306,-2.5337,-2.5345,-2.5353,0,0,0,0,0,-2.4836,-2.4893,-2.4888,-2.4902,-2.4974,-2.503,-2.5039,-2.5046,-2.5024,-2.5052,-2.5068,-2.5058,-2.5166,-2.5137,-2.5151,-2.5187,-2.5295,-2.53,-2.5305,-2.5334,-2.5344,-2.5352,0,0,0,0,0,0,-2.4861,-2.4898,-2.4893,-2.4964,-2.4994,-2.5027,-2.5063,-2.5057,-2.5093,-2.5089,-2.5095,-2.5103,-2.5166,-2.5182,-2.515,-2.5257,-2.5227,-2.5235,-2.5244,-2.5254,-2.5261,-2.5256,-2.5124,0,0,0,0,0,-2.4875,-2.4917,-2.4948,-2.5007,-2.5023,-2.504,-2.5065,-2.5067,-2.5098,-2.5111,-2.5132,-2.5162,-2.5203,-2.5229,-2.5268,-2.534,-2.5347,-2.5371,-2.5379,-2.5385,-2.5391,-2.5429,-2.544,-2.5325,-2.5325,-2.5325,0,0,-2.4903,-2.4929,-2.4956,-2.5013,-2.5036,-2.508,-2.5051,-2.5098,-2.513,-2.5118,-2.5177,-2.5194,-2.5228,-2.5294,-2.5324,-2.531,-2.5425,-2.5391,-2.5396,-2.5399,-2.5435,-2.5446,-2.5456,-2.5328,-2.5328,-2.5327,0,0,-2.4978,-2.5002,-2.5054,-2.5078,-2.5114,-2.5125,-2.5138,-2.5172,-2.5183,-2.5242,-2.5234,-2.5271,-2.5342,-2.5366,-2.5387,-2.547,-2.5461,-2.5482,-2.5522,-2.5558,-2.5567,-2.5575,-2.5604,-2.5614,-2.5489,-2.5489,-2.5489,0,-2.5009,-2.5074,-2.5081,-2.5129,-2.5154,-2.5145,-2.5197,-2.522,-2.5267,-2.5283,-2.5267,-2.5354,-2.5376,-2.5448,-2.5468,-2.5486,-2.5499,-2.5478,-2.5566,-2.5574,-2.5581,-2.5608,-2.5619,-2.5491,-2.5491,-2.5491,-2.5491,0,-2.511,-2.5155,-2.5193,-2.5238,-2.5267,-2.5317,-2.533,-2.5359,-2.5358,-2.5371,-2.5431,-2.5458,-2.5501,-2.5518,-2.5519,-2.5589,-2.5579,-2.5564,-2.5534,-2.5594,-2.562,-2.563,-2.5495,-2.5494,-2.5493,-2.5493,0,0,-2.5202,-2.525,-2.5264,-2.5284,-2.5323,-2.5358,-2.5406,-2.5449,-2.5473,-2.5506,-2.5546,-2.5605,-2.5591,-2.5615,-2.5618,-2.5651,-2.5713,-2.5631,-2.5632,-2.5644,-2.5791,-2.5801,-2.5813,-2.5707,-2.5709,-2.5711,-2.5787,0,-2.5279,-2.5365,-2.5372,-2.5449,-2.5491,-2.5483,-2.5525,-2.5553,-2.5566,-2.5602,-2.5616,-2.5657,-2.5637,-2.5651,-2.5683,-2.5698,-2.5742,-2.5693,-2.5743,-2.5745,-2.5734,-2.5826,-2.5837,-2.5908,-2.5797,-2.5799,-2.58,0,-2.5381,-2.5416,-2.5497,-2.5529,-2.5547,-2.5585,-2.5624,-2.5659,-2.569,-2.5697,-2.5724,-2.5722,-2.5771,-2.574,-2.5806,-2.5773,-2.5794,-2.5805,-2.5807,-2.5812,-2.5776,-2.5832,-2.5931,-2.5941,-2.5816,-2.5815,-2.5814,0,-2.5438,-2.5506,-2.5563,-2.5581,-2.562,-2.5647,-2.5664,-2.5693,-2.5718,-2.5752,-2.5768,-2.5808,-2.5829,-2.5859,-2.5867,-2.5844,-2.5933,-2.5903,-2.5939,-2.5939,-2.5958,-2.5956,-2.6061,-2.5973,-2.5973,-2.5973,-2.5973,0,-2.5523,-2.5572,-2.5589,-2.5624,-2.5679,-2.5687,-2.5741,-2.5756,-2.5782,-2.5819,-2.5815,-2.585,-2.5859,-2.5896,-2.5903,-2.5956,-2.5966,-2.5972,-2.5973,-2.5972,-2.5971,-2.5985,-2.598,-2.5976,-2.5975,-2.5975,-2.5974,0,-2.5596,-2.561,-2.5671,-2.5703,-2.5712,-2.5751,-2.5778,-2.5811,-2.5823,-2.587,-2.5882,-2.59,-2.5943,-2.5954,-2.6005,-2.601,-2.6072,-2.6069,-2.6062,-2.6061,-2.6097,-2.6093,-2.6213,-2.6229,-2.6132,-2.6133,-2.6134,0,-2.5649,-2.5687,-2.5722,-2.5747,-2.5766,-2.5806,-2.5831,-2.5839,-2.5866,-2.5903,-2.5932,-2.5973,-2.6007,-2.6075,-2.6093,-2.6131,-2.6129,-2.6168,-2.6134,-2.6132,-2.6128,-2.6125,-2.6128,-2.6174,-2.6175,-2.6176,-2.6177,0,-2.574,-2.5745,-2.5782,-2.5821,-2.5851,-2.5882,-2.5912,-2.5933,-2.5945,-2.5974,-2.6018,-2.6044,-2.6096,-2.6137,-2.6176,-2.6193,-2.6187,-2.6187,-2.6198,-2.6196,-2.619,-2.6192,-2.6078,-2.6184,-2.6184,-2.6183,-2.6183,-2.6182,-2.5804,-2.5837,-2.5867,-2.5908,-2.5931,-2.5959,-2.5991,-2.6007,-2.6043,-2.6086,-2.6089,-2.6136,-2.6164,-2.6216,-2.6235,-2.6271,-2.6259,-2.6274,-2.6278,-2.6281,-2.6284,-2.6185,-2.6278,-2.6278,-2.6278,-2.6278,-2.6278,0,-2.5894,-2.5913,-2.5951,-2.5992,-2.6024,-2.6016,-2.6048,-2.6075,-2.6116,-2.6144,-2.6177,-2.6227,-2.6266,-2.6287,-2.6326,-2.6351,-2.6349,-2.6361,-2.6358,-2.6362,-2.6293,-2.6279,-2.6362,-2.6362,-2.6362,-2.6362,-2.6362,-2.6362,-2.5945,-2.6,-2.6008,-2.6073,-2.6091,-2.6137,-2.6156,-2.6181,-2.6203,-2.6259,-2.6292,-2.6305,-2.6329,-2.637,-2.6406,-2.6411,-2.6425,-2.6438,-2.6441,-2.6376,-2.6367,-2.6359,-2.6346,-2.6441,-2.6441,-2.6507,-2.6508,-2.6508]},{"header":{"parameterUnit":"m.s-1","parameterCategory":1,"la1":30.2991,"la2":30.254,"lo1":-89.0895,"lo2":-89.0444,"dy":0.0017,"dx":0.0017,"nx":28,"ny":28,"refTime":"2025-01-11T03:00:00:Z","depth":0,"parameterNumber":3,"parameterNumberName":"V-component_of_WINDS"},"data":[0,0,0,0,0,0,0,0,0,0,0,0,0,0,0,0,0,0,0,0,0,0,0,0,0,0,0,0,0,0,0,0,0,0,0,0,0,0,0,0,0,0,0,0,0,0,0,0,0,0,0,0,0,0,0,0,0,0,0.0941,0.0941,0,0.0906,0.0906,0.0905,0.0878,0.0877,0.0877,0.0877,0.0838,0.0838,0.0837,0,0,0,0,0,0,0,0,0,0,0,0,0,0.0981,0.098,0.0941,0.0941,0.094,0.0906,0.0906,0.0905,0.0878,0.0877,0.0877,0.0877,0.0839,0.0838,0.0837,0,0,0,0,0,0,0,0,0,0,0,0,0,0.0956,0.098,0.0941,0.0922,0.092,0.0906,0.0906,0.0905,0.0878,0.0877,0.0877,0.0877,0.0839,0.0838,0.0837,0.0837,0,0,0.0833,0.0833,0,0,0,0,0,0,0,0,0.0958,0.0955,0.0926,0.0924,0.0921,0.0896,0.0906,0.0882,0.0878,0.0894,0.0877,0.0876,0.0858,0.0855,0.0849,0.0836,0.0834,0.0833,0.0832,0.0832,0.0832,0,0,0,0,0,0,0,0.096,0.0956,0.0927,0.0925,0.0923,0.0915,0.0911,0.0901,0.0878,0.0892,0.089,0.0887,0.0856,0.085,0.0848,0.0833,0.0833,0.0832,0.0831,0.0831,0.0818,0.0818,0,0,0,0,0,0,0.0965,0.0958,0.0928,0.0926,0.0939,0.0914,0.091,0.0904,0.0878,0.0874,0.0887,0.0886,0.0853,0.0849,0.0847,0.0845,0.0832,0.0831,0.083,0.0817,0.0818,0.0818,0,0,0,0,0,0,0.0966,0.0962,0.093,0.0941,0.0937,0.0914,0.0908,0.0904,0.0898,0.0874,0.087,0.0885,0.0852,0.0848,0.084,0.0844,0.083,0.0829,0.0817,0.0818,0.0818,0.0843,0,0,0,0,0,0,0.0967,0.0963,0.0964,0.0942,0.0936,0.0925,0.0908,0.0904,0.0896,0.0894,0.0872,0.0867,0.0852,0.0842,0.0839,0.0842,0.0828,0.0817,0.0817,0.0818,0.0842,0.0845,0.0847,0,0,0,0,0,0.0968,0.0972,0.0964,0.096,0.0937,0.0925,0.0922,0.0904,0.0897,0.0897,0.0882,0.0868,0.0844,0.0841,0.0838,0.084,0.0816,0.0817,0.0818,0.0841,0.0844,0.0847,0,0,0,0,0,0,0.0994,0.0968,0.0959,0.0956,0.0943,0.092,0.092,0.0908,0.0896,0.0894,0.0872,0.0867,0.0861,0.085,0.0847,0.0839,0.0828,0.0828,0.0847,0.085,0.0852,0.0855,0.0827,0,0,0,0,0,0.0999,0.0993,0.097,0.0969,0.0963,0.0943,0.0937,0.0925,0.091,0.0904,0.0888,0.0873,0.0862,0.0855,0.0844,0.084,0.0834,0.084,0.0843,0.0845,0.0845,0.0841,0.0844,0.0821,0.0821,0.0821,0,0,0.101,0.0995,0.0992,0.0974,0.0962,0.0955,0.0938,0.0931,0.0925,0.0902,0.0894,0.0882,0.0864,0.0858,0.0854,0.0848,0.085,0.0846,0.0848,0.0847,0.0842,0.0845,0.0847,0.0821,0.0821,0.0821,0,0,0.1026,0.1014,0.1012,0.1001,0.0984,0.097,0.097,0.0949,0.094,0.0931,0.0914,0.0905,0.0887,0.0875,0.0866,0.0877,0.0864,0.0873,0.0886,0.0883,0.0885,0.0886,0.0889,0.0891,0.0874,0.0874,0.0874,0,0.1041,0.103,0.1012,0.1006,0.0998,0.0978,0.0975,0.0965,0.0944,0.0939,0.0932,0.0909,0.0895,0.0885,0.0888,0.0882,0.088,0.0876,0.0886,0.0887,0.0888,0.0891,0.0893,0.0875,0.0875,0.0875,0.0875,0,0.105,0.1042,0.1042,0.1024,0.1016,0.1012,0.0992,0.0986,0.0974,0.0961,0.0951,0.0934,0.0919,0.0915,0.0904,0.0904,0.0901,0.089,0.0879,0.0892,0.0894,0.0895,0.0877,0.0877,0.0876,0.0876,0,0,0.1081,0.1053,0.1053,0.1044,0.1024,0.1017,0.1011,0.0997,0.0992,0.0978,0.0972,0.0957,0.0947,0.0937,0.0923,0.0921,0.0929,0.091,0.091,0.0914,0.0928,0.0936,0.0938,0.092,0.0921,0.0921,0.0929,0,0.1094,0.1083,0.1066,0.1061,0.1053,0.1033,0.1028,0.1014,0.1001,0.0992,0.0977,0.0967,0.0955,0.0949,0.0945,0.0929,0.0932,0.0928,0.0914,0.0913,0.0919,0.0939,0.0947,0.0956,0.093,0.093,0.093,0,0.1107,0.1096,0.109,0.1069,0.1065,0.1061,0.1046,0.1038,0.1021,0.1012,0.1001,0.0986,0.0977,0.0967,0.0954,0.0952,0.0945,0.0936,0.0936,0.0934,0.0923,0.0937,0.0959,0.096,0.0932,0.0932,0.0932,0,0.1131,0.1113,0.1107,0.11,0.1076,0.1073,0.1063,0.1046,0.1038,0.1025,0.1019,0.1005,0.0997,0.0985,0.0966,0.096,0.0955,0.0943,0.0947,0.0947,0.0946,0.0947,0.0967,0.0942,0.0942,0.0942,0.0942,0,0.1146,0.1143,0.1117,0.1114,0.1109,0.1089,0.1085,0.1073,0.1058,0.105,0.1032,0.1025,0.1001,0.0991,0.0976,0.0967,0.0963,0.0955,0.0951,0.0957,0.0958,0.0952,0.095,0.0942,0.0942,0.0942,0.0942,0,0.1172,0.1154,0.1146,0.1124,0.1119,0.1116,0.1097,0.1092,0.1078,0.1069,0.1065,0.1043,0.103,0.101,0.0991,0.0981,0.0975,0.0968,0.0981,0.0978,0.0982,0.0982,0.0999,0.1,0.0975,0.0975,0.0976,0,0.1183,0.118,0.1158,0.1152,0.1143,0.1134,0.1126,0.1105,0.1098,0.1078,0.1075,0.1061,0.1049,0.1029,0.1011,0.0996,0.0989,0.0996,0.0986,0.0992,0.0988,0.0989,0.0988,0.0998,0.0998,0.0999,0.0999,0,0.1205,0.1196,0.1186,0.1173,0.1164,0.1152,0.1139,0.1135,0.1112,0.1104,0.1091,0.1082,0.1063,0.1049,0.1031,0.1019,0.1005,0.1002,0.1002,0.1008,0.1015,0.1011,0.0986,0.1002,0.1001,0.1001,0.1001,0.1001,0.1223,0.122,0.1204,0.1193,0.1181,0.1169,0.1163,0.1149,0.1138,0.1122,0.111,0.1098,0.108,0.1055,0.1043,0.1033,0.1026,0.1026,0.1026,0.1026,0.1028,0.1017,0.1029,0.1029,0.1029,0.1029,0.1029,0,0.1244,0.1232,0.1223,0.1206,0.1197,0.1185,0.117,0.1163,0.1153,0.1138,0.1126,0.1111,0.1097,0.1077,0.1061,0.1056,0.1049,0.1053,0.1053,0.105,0.1035,0.1037,0.1059,0.1059,0.1059,0.1059,0.1059,0.1059,0.1254,0.1247,0.1236,0.1223,0.1211,0.12,0.1192,0.1181,0.1169,0.1153,0.1142,0.1129,0.1111,0.1094,0.108,0.1075,0.107,0.1075,0.1067,0.1054,0.1051,0.1049,0.105,0.1074,0.1074,0.1083,0.1083,0.1083]}]]